Location: Kuppenheim
(48.8299°N, 8.2568°E)
Time: 01:42:25
(UTC+00:00)

USA 281 - Visible Passes

Search period start: 23 October 2021 00:00
Search period end: 02 November 2021 00:00
Orbit: 1078 x 1081 km, 106.0° (Epoch: 15 October)

Date Brightness Start Highest point End Pass type
(mag) Time Alt. Az. Time Alt. Az. Time Alt. Az.
23 Oct 5.7 00:04:23 10° N 00:05:11 12° N 00:05:11 12° N visible
23 Oct 5.2 05:09:31 10° E 05:14:17 22° NE 05:19:05 10° N visible
23 Oct 5.8 23:14:04 10° NNE 23:14:18 11° N 23:14:18 11° N visible
24 Oct 5.7 01:00:52 10° N 01:01:09 10° NNW 01:01:09 10° NNW visible
24 Oct 5.5 04:22:47 10° NE 04:25:40 13° NNE 04:28:33 10° N visible
25 Oct 5.8 00:09:42 10° N 00:10:16 12° N 00:10:16 12° N visible
25 Oct 5.2 05:14:49 10° E 05:19:36 22° NE 05:24:25 10° N visible
25 Oct 5.9 23:19:24 10° NNE 23:19:25 10° NNE 23:19:25 10° NNE visible
26 Oct 5.7 01:06:14 10° N 01:06:16 10° NNW 01:06:16 10° NNW visible
26 Oct 5.5 04:28:04 10° NE 04:30:58 13° NNE 04:33:52 10° N visible
27 Oct 5.8 00:15:02 10° N 00:15:23 11° N 00:15:23 11° N visible
27 Oct 5.2 05:20:06 10° E 05:24:55 22° NE 05:29:44 10° N visible
28 Oct 5.5 04:33:21 10° NE 04:36:16 13° NNE 04:39:12 10° N visible
29 Oct 5.8 00:20:22 10° N 00:20:32 10° N 00:20:32 10° N visible
29 Oct 5.2 05:25:24 10° E 05:30:13 22° NE 05:35:03 10° N visible
30 Oct 5.5 04:38:38 10° NE 04:41:35 14° NNE 04:44:32 10° N visible
31 Oct 5.1 05:30:41 10° E 05:35:32 22° NE 05:40:23 10° N visible
01 Nov 5.5 04:43:55 10° NE 04:46:53 14° NNE 04:49:52 10° N visible
